Hourly Weather Roundup
Issued by NWS Central Illinois

Home | Current Version | Previous Version | Text Only | Print | Product List | Glossary On
Versions: 1 2 3 4 5 6 7 8 9 10 11 12 13 14 15 16 17 18 19 20 21 22 23 24 25 26 27 28 29 30 31 32 33 34 35 36 37 38 39 40 41 42 43 44 45 46 47 48 49 50
000
NZUS43 KILX 041610
HWRILX

AREA WEATHER ROUNDUP
NATIONAL WEATHER SERVICE, LINCOLN IL
1100 AM CDT TUE AUG 04 2015


CITY           SKY/WX    TMP DP  RH WIND       PRES   REMARKS
BLOOMINGTON    PTSUNNY   77  59  53 VRB7      30.03S
CHAMPAIGN      MOSUNNY   78  62  57 SW5       30.03R HX  80
DANVILLE       MOSUNNY   76  62  61 SW5       29.99S
DECATUR        CLOUDY    78  58  49 SE3       30.02S
EFFINGHAM      CLOUDY    75  61  60 CALM      30.03F
FLORA          CLOUDY    79  65  63 CALM      30.01S HX  81
GALESBURG        N/A    N/A N/A N/A MISG        N/A
JACKSONVILLE   CLOUDY    78  63  60 CALM      30.02S HX  80
LACON          PTSUNNY   76  60  57 SW6       30.00S
LAWRENCEVILLE  CLOUDY    79  64  60 SE3       30.01S HX  81
LITCHFIELD     CLOUDY    76  60  57 E3        30.02R
$$


CITY           SKY/WX    TMP DP  RH WIND       PRES   REMARKS
LINCOLN        CLOUDY    77  59  53 CALM      30.01F
MACOMB         CLOUDY    74  61  64 CALM      30.04S
MATTOON        PTSUNNY   78  55  44 SW3       30.01S
MT CARMEL AP   PTSUNNY   79  68  69 W3        30.01S HX  81
OLNEY-NOBLE AP PTSUNNY   77  68  73 CALM      30.02R
PARIS          MOSUNNY   77  60  54 CALM      30.03S
PEORIA         PTSUNNY   81  57  43 W3        30.01S HX  81
PONTIAC        MOSUNNY   78  62  58 W9        30.02R HX  80
RANTOUL        MOSUNNY   80  60  50 W5        30.01S HX  80
ROBINSON       CLOUDY    76  62  62 CALM      30.02S
SPRINGFIELD    CLOUDY    79  60  52 SE3       30.02R HX  80
TAYLORVILLE    CLOUDY    77  61  57 CALM      30.02S
$$

...REGIONAL REPORTS...


CITY           SKY/WX    TMP DP  RH WIND       PRES   REMARKS
CHICAGO O`HARE PTSUNNY   78  50  37 W15G21    29.97S
KANKAKEE       SUNNY     78  58  49 W6        30.01R
MOLINE         PTSUNNY   79  60  52 NW8       30.00F HX  80
MOUNT STERLING NOT AVBL
MOUNT VERNON   PTSUNNY   81  66  61 NE3       30.02R HX  83
PITTSFIELD     CLOUDY    78  64  62 E3        30.03S
QUINCY         CLOUDY    76  61  59 SE6       30.02S
ROCKFORD       PTSUNNY   78  55  44 W8        30.01R
$$


CITY           SKY/WX    TMP DP  RH WIND       PRES   REMARKS
BURLINGTON     CLOUDY    76  58  53 CALM      30.02S
CEDAR RAPIDS   PTSUNNY   74  65  73 NW7       30.02F
DES MOINES     CLOUDY    73  58  59 CALM      30.04S
KIRKSVILLE     RAIN      67  64  90 W8        30.09R FOG
OTTUMWA        CLOUDY    72  65  78 W5        30.03R
ST LOUIS       PTSUNNY   85  67  54 S10       29.99F HX  87
$$


CITY           SKY/WX    TMP DP  RH WIND       PRES   REMARKS
TERRE HAUTE    MOSUNNY   80  57  45 VRB5      30.02R HX  80
EVANSVILLE     PTSUNNY   82  70  66 CALM      30.00F HX  86
INDIANAPOLIS   PTSUNNY   80  54  40 W8        30.01R HX  80
LAFAYETTE      MOSUNNY   76  61  59 SW6       30.00S
MADISON        PTSUNNY   74  53  48 NW8       29.99S
MILWAUKEE      MOSUNNY   77  52  41 W14G20    29.96R
$$





USA.gov is the U.S. government's official web portal to all federal, state and local government web resources and services.